(36) Atalante
ephemeris date magn radius delta ra dec elong phase
Today9 May 202513.82.512 AU2.692 AU08h05m+31°33'68.9°22.0°
Opposition5 Apr 202613.43.391 AU2.397 AU12h44m-13°29'172.0°2.4°
(36) Atalante - 2025-05-09
astro.vanbuitenen.nl


 
-1 year
-1 month
-1 day
Now
+1 day
+1 month
+1 year

The interactive orbit chart above shows the body's path through the solar system and its position at the given date. Green and blue lines are shown perpendicular to the ecliptic plane: Green if the path is above the ecliptic plane, blue if it is below. (Left-click and drag to rotate the view; Right-click and drag to move the view; Use scroll wheel to zoom in our out.)

The orbital elements of Atalante are:

            e (Eccentricity)                : 0.3063778
            a (Semimajor axis)              : 2.7451725
            i (Inclination)                 : 18.37277
            Ω (Longitude of ascending node) : 358.16566
            ω (Argument of perihelion)      : 47.79748
            M (Mean anomaly)                : 56.17174
            Epoch                           : 2025 May 05

            L (Longitude of perihelion)     : 44.46831
            B (Latitude of perihelion)      : 13.50268
            P (Orbital period in years)     : 4.55            
        

The light curve chart below shows the estimated development of the minor planet's magnitude.


The all-sky chart below shows the path of the minor planet over the same period as the light curve. The current position is marked yellow.





The following chart shows the path of the minor planet in the next few days. The field of view is optimized for (~10x50) binoculars and finderscopes. A more printer-friendly version of the same chart can be found below.




Ephemerides:
Date       Time       RA (2000)    DEC (2000)    delta   radius  elong  phase   PA    magn
2025-05-09 00:00 UT   08 05 10.8   +31 33 34     2.692    2.512   68.9   22.0    98   13.8 
2025-05-09 21:38 UT   08 06 36.0   +31 23 59     2.705    2.515   68.4   21.9    98   13.8 
2025-05-10 00:00 UT   08 06 45.4   +31 22 56     2.706    2.515   68.3   21.9    98   13.8 
2025-05-11 00:00 UT   08 08 20.0   +31 12 18     2.721    2.519   67.8   21.8    98   13.8 
2025-05-12 00:00 UT   08 09 54.7   +31 01 40     2.736    2.522   67.2   21.7    98   13.8 
2025-05-13 00:00 UT   08 11 29.4   +30 51 02     2.751    2.525   66.6   21.5    98   13.8 
2025-05-14 00:00 UT   08 13 04.3   +30 40 24     2.765    2.529   66.0   21.4    98   13.8 
2025-05-15 00:00 UT   08 14 39.1   +30 29 46     2.780    2.532   65.4   21.3    98   13.9 
2025-05-16 00:00 UT   08 16 14.1   +30 19 07     2.794    2.535   64.8   21.2    98   13.9 
2025-05-17 00:00 UT   08 17 49.1   +30 08 28     2.809    2.539   64.3   21.0    98   13.9 
2025-05-18 00:00 UT   08 19 24.1   +29 57 50     2.823    2.542   63.7   20.9    98   13.9 
2025-05-19 00:00 UT   08 20 59.2   +29 47 10     2.838    2.545   63.1   20.8    98   13.9 
2025-05-20 00:00 UT   08 22 34.3   +29 36 31     2.852    2.549   62.5   20.6    98   13.9 
2025-05-21 00:00 UT   08 24 09.4   +29 25 51     2.867    2.552   61.9   20.5    98   13.9 
2025-05-22 00:00 UT   08 25 44.5   +29 15 11     2.881    2.555   61.4   20.3    98   13.9 
2025-05-23 00:00 UT   08 27 19.7   +29 04 30     2.895    2.559   60.8   20.2    99   13.9 
2025-05-24 00:00 UT   08 28 54.9   +28 53 49     2.910    2.562   60.2   20.1    99   13.9 
2025-05-25 00:00 UT   08 30 30.0   +28 43 08     2.924    2.565   59.6   19.9    99   14.0 
2025-05-26 00:00 UT   08 32 05.2   +28 32 26     2.938    2.569   59.1   19.8    99   14.0 
2025-05-27 00:00 UT   08 33 40.4   +28 21 43     2.952    2.572   58.5   19.6    99   14.0 
2025-05-28 00:00 UT   08 35 15.6   +28 11 00     2.966    2.575   57.9   19.5    99   14.0 
2025-05-29 00:00 UT   08 36 50.7   +28 00 17     2.980    2.579   57.4   19.3    99   14.0 
2025-05-30 00:00 UT   08 38 25.8   +27 49 33     2.994    2.582   56.8   19.2    99   14.0 


    Terminology:
            
    delta:  distance between minor planet and earth in AU
    radius: distance between minor planet and sun in AU
    magn:   magnitude (brightness) estimate    
    ra:     right ascension in hours (24h = 360deg)
    dec:    declination in degrees
    elong:  elongation in degrees (angle sun-earth-minor planet)    
    phase:  phase angle in degrees (angle sun-minor planet-earth)        
    AU:     Astronomical Unit (mean distance between earth and sun: 149597870.7 km
    

Orbital elements provided by the MPC (Minor Planet Center).
Calculations by a modified version of AAPlus, a C# implementation of the AA+ project by PJ Naughter from the algorithms presented in the book "Astronomical Algorithms" by Jean Meeus.
NGC2000 dso catalog and star labels from VizieR as provided by the Strasbourg astronomical Data Center.
Tycho2 catalog from the ESO archive.